Wind_Speed
16 22 27 25 34 21 24 24 19 20 22 26 30 27 28 25 29 28 25 26 26 25 23 23 19 22 19 11 14 15 15 13 15 16 16 16 15 15 16 17 16 15 15 16
17 22 23 18 29 30 14 16 22 18 20 22 24 26 26 22 19 24 25 23 25 25 27 21 21 25 16 11 17 16 14 14 17 16 18 17 15 15 16 17 16 16 17 19
17 16 16 14 24 27 28 23 24 22 18 18 20 22 23 21 19 20 21 25 28 28 26 24 19 16 15 14 15 14 15 17 18 18 20 18 15 15 16 17 17 18 19 20
10 12 13 17 19 27 26 27 18 17 19 17 14 6 21 23 24 24 24 28 30 29 25 19 18 17 17 13 14 15 18 18 18 20 22 19 16 17 18 18 18 19 20 22
8 9 12 18 20 24 27 24 22 21 19 17 15 9 21 23 23 25 29 30 27 26 23 21 22 20 17 12 17 20 20 19 20 21 23 18 18 19 20 20 21 23 24 27
7 5 13 14 16 21 24 20 17 16 14 5 18 16 13 20 22 21 25 25 26 23 21 18 17 18 18 17 20 21 21 20 20 22 21 18 19 21 22 24 25 27 30 33
3 8 5 10 15 18 22 15 2 2 2 5 6 15 25 10 14 16 16 16 16 16 15 14 16 19 18 19 20 21 21 20 22 22 20 20 22 24 27 29 32 34 36 37
8 0 3 7 9 13 19 19 5 5 4 4 9 9 15 18 26 25 16 15 15 14 13 14 14 14 15 16 18 21 21 22 23 24 24 25 27 29 32 34 35 36 35 35
18 5 3 5 8 9 13 19 15 0 2 0 6 10 9 12 17 19 20 16 14 13 13 12 11 11 11 14 17 20 22 24 25 26 27 28 30 33 35 34 33 34 37 40
8 10 8 4 8 7 5 15 11 4 2 2 3 6 15 10 22 15 14 18 14 12 11 10 10 9 10 14 18 20 22 24 26 27 29 32 33 32 32 34 36 39 42 45
7 6 5 2 3 4 7 13 5 7 2 2 2 2 2 9 11 9 10 14 14 12 10 9 8 9 12 14 16 20 24 26 27 29 30 31 32 33 34 37 39 43 48 48
5 5 4 3 1 1 6 7 8 8 8 8 2 6 7 4 4 9 10 11 11 10 9 9 10 12 13 15 19 22 24 26 28 30 31 32 32 34 37 40 45 50 49 48
7 3 2 7 1 8 7 11 12 15 16 6 4 3 3 6 7 6 10 11 9 10 9 10 12 13 15 17 20 22 25 27 29 30 32 33 36 39 43 46 50 49 46 44
6 7 5 2 0 2 7 12 15 14 11 10 15 19 18 14 9 8 9 13 12 11 11 12 13 15 16 18 20 22 25 28 31 32 33 36 40 44 46 49 45 43 42 41
8 6 7 5 4 4 5 5 9 17 17 12 15 14 10 11 9 9 9 11 12 12 12 14 14 16 18 21 23 25 28 31 33 35 37 41 44 47 46 43 41 39 38 38
10 7 11 11 8 11 14 12 13 13 15 20 20 20 13 8 7 9 11 13 12 12 14 15 17 20 23 25 27 30 32 34 36 38 42 44 45 42 40 37 36 35 35 36
9 7 8 4 8 10 9 6 11 16 16 14 15 11 11 11 12 11 12 12 13 13 15 18 21 23 26 29 31 33 35 37 39 41 42 41 39 37 35 34 34 34 35 36
10 9 6 7 9 2 4 9 8 8 9 13 15 14 12 10 9 9 11 12 12 14 17 20 23 27 29 32 33 35 36 38 40 41 38 36 34 33 33 33 33 34 36 37
10 8 5 3 5 12 6 7 7 10 9 10 11 11 8 5 4 5 7 9 10 15 18 21 24 27 30 32 33 34 37 39 37 36 35 33 32 30 31 32 34 35 36 37
10 9 8 3 3 3 5 11 10 9 6 6 3 3 4 4 5 8 10 13 17 20 21 22 23 25 27 29 32 35 35 36 36 32 30 29 30 30 32 34 35 36 35 35
6 8 14 12 6 8 12 10 9 3 5 7 1 1 5 8 10 12 15 18 21 23 23 22 22 23 26 29 31 32 33 30 28 29 30 30 31 32 34 34 35 34 34 34
7 5 4 5 6 4 7 11 6 6 8 8 8 9 11 14 15 16 18 21 24 23 22 21 22 24 26 29 30 29 26 27 28 29 30 31 31 33 33 33 33 33 34 36
8 9 5 5 6 14 15 13 13 15 15 13 13 15 18 18 18 19 20 23 23 22 21 20 21 24 27 27 25 24 26 27 27 28 29 30 31 31 32 33 32 32 34 37
11 13 16 15 5 14 17 16 17 18 18 17 17 18 18 18 18 20 22 22 21 20 19 21 23 24 24 23 24 25 25 26 27 28 29 30 31 31 32 32 31 33 36 39
15 12 12 17 13 17 13 18 19 18 18 17 17 17 17 17 19 21 22 19 18 18 20 22 23 23 23 22 23 24 25 26 27 29 30 31 32 32 32 30 30 34 36 39
21 19 19 20 17 15 18 22 21 18 16 17 17 18 18 19 20 20 17 17 18 19 21 22 23 22 22 23 24 24 25 26 27 29 30 30 31 31 29 29 30 32 34 35
Wind_Direction
241 229 236 242 217 208 218 220 213 216 222 231 230 230 236 236 238 243 242 234 247 248 256 268 271 281 281 262 245 262 261 264 285 292 307 297 283 285 289 291 287 278 274 273
231 241 242 251 221 216 200 210 215 219 221 229 234 241 245 251 247 244 253 244 240 244 266 267 274 278 269 264 254 253 253 269 286 296 303 301 279 281 286 287 280 274 273 273
246 243 242 216 216 214 215 218 211 212 226 218 227 238 235 241 243 245 246 243 244 256 262 267 257 264 277 274 251 243 250 269 281 291 300 296 277 278 282 282 276 272 273 276
279 233 238 206 213 207 212 224 217 223 220 225 225 258 246 243 246 244 244 244 245 257 258 246 252 262 284 266 243 246 256 264 278 288 298 290 275 276 278 280 279 279 280 279
265 241 222 208 213 208 217 221 220 228 235 240 241 242 257 249 245 244 246 250 247 253 249 250 261 262 269 243 244 245 252 265 277 289 297 279 271 273 280 285 285 283 282 282
242 236 223 216 210 211 211 217 220 220 237 251 245 224 258 248 247 245 246 254 247 246 247 247 247 258 257 234 235 242 252 267 281 292 291 277 275 277 279 280 283 285 287 288
206 219 229 229 213 222 217 204 97 132 190 215 246 228 241 251 224 250 251 241 243 236 231 240 248 260 253 233 231 243 256 268 279 284 280 276 277 280 285 288 290 290 290 289
23 332 185 202 205 224 218 215 177 193 181 206 224 223 228 237 248 256 257 244 220 218 224 245 252 248 237 232 235 245 257 267 274 277 279 282 285 287 289 289 289 288 287 287
15 301 220 177 147 194 209 209 220 201 95 146 224 237 252 248 254 251 245 230 216 223 238 248 241 238 236 237 242 250 258 266 273 280 284 286 287 288 287 287 287 287 288 290
356 8 48 186 142 149 213 213 199 217 98 277 289 251 240 258 253 260 234 222 228 235 243 234 226 232 236 240 246 255 266 274 280 283 284 284 285 286 285 285 288 291 293 295
343 323 8 212 105 183 147 167 153 152 180 180 308 261 305 251 253 254 237 224 226 234 228 227 241 243 242 247 260 268 271 275 278 279 281 283 285 287 288 289 292 297 300 298
316 299 287 227 351 312 221 199 179 170 201 214 219 290 290 307 290 243 214 215 220 220 222 239 258 258 256 262 266 270 274 277 278 282 286 288 288 291 297 300 302 303 300 298
335 310 360 134 193 264 228 216 220 236 255 238 169 241 331 312 302 255 214 206 217 215 233 250 256 257 262 269 273 275 276 279 285 288 290 294 299 303 304 303 302 300 300 301
319 295 286 242 206 194 211 230 249 249 249 247 258 274 274 285 277 262 252 220 217 227 244 252 261 267 271 275 277 282 287 288 289 293 297 301 304 303 301 301 301 301 301 300
329 303 313 312 292 280 276 258 244 243 250 257 275 273 286 280 266 256 232 226 235 249 261 272 273 276 281 285 288 291 293 294 297 299 301 301 301 301 302 303 302 300 300 302
331 307 313 310 298 286 281 272 266 259 253 254 264 279 287 281 254 246 245 242 249 264 271 274 280 287 290 291 293 297 298 297 298 298 298 299 301 305 305 303 304 305 304 303
309 311 319 306 331 312 295 318 270 265 269 272 271 293 282 280 271 258 246 246 255 261 271 281 288 289 292 294 296 294 294 295 296 298 301 306 307 306 307 308 308 306 305 305
273 300 305 292 322 349 338 328 313 298 286 275 276 279 280 276 260 241 240 250 256 264 278 289 290 289 289 289 289 291 294 297 299 304 308 308 309 310 309 308 308 307 306 307
261 270 287 297 307 294 316 355 313 301 310 294 277 272 278 283 263 258 258 262 275 297 297 291 288 285 285 286 290 295 297 300 306 309 311 311 309 309 310 311 310 309 309 309
251 243 241 297 308 247 307 327 326 326 337 345 284 240 264 272 282 274 283 293 299 302 302 296 290 286 288 292 295 296 302 307 310 310 309 310 313 314 314 313 313 313 313 312
283 257 246 254 261 282 302 321 324 344 334 352 333 233 296 296 299 300 299 299 305 307 305 300 295 292 293 296 300 305 307 309 310 314 318 318 315 313 314 315 316 315 314 314
276 286 262 223 230 299 354 339 331 322 319 317 283 291 309 313 306 300 303 308 309 307 305 301 299 300 302 303 306 309 311 315 317 318 318 315 315 316 316 316 315 316 316 315
261 255 277 255 292 300 316 317 309 305 305 305 294 293 297 302 302 304 305 308 307 304 302 304 305 304 304 308 311 314 314 315 316 317 317 316 318 318 317 318 317 317 317 317
278 278 270 287 339 315 308 307 300 295 303 303 300 298 299 301 301 302 305 306 303 304 307 306 304 306 312 314 314 314 314 315 317 318 318 319 319 318 319 321 318 319 320 318
250 260 271 284 324 320 313 304 304 303 305 306 302 300 300 300 300 304 305 303 308 308 307 306 313 316 313 314 315 316 315 316 318 316 317 318 319 319 320 319 320 320 321 321
246 257 269 290 306 302 314 315 311 308 303 302 300 299 298 300 305 303 305 311 308 308 310 316 316 314 314 317 318 315 314 315 316 318 317 318 318 319 320 320 321 321 321 322
Height
3075 3077 3075 3080 3084 3090 3093 3095 3099 3103 3106 3109 3113 3116 3118 3121 3123 3126 3129 3131 3134 3136 3137 3138 3139 3141 3142 3143 3144 3145 3146 3146 3148 3146 3145 3144 3144 3143 3143 3143 3143 3142 3142 3141
3075 3072 3075 3078 3081 3086 3090 3093 3097 3102 3103 3107 3109 3111 3114 3116 3119 3121 3124 3125 3127 3129 3132 3133 3136 3138 3138 3139 3142 3141 3142 3144 3143 3142 3141 3140 3140 3140 3140 3139 3139 3138 3137 3137
3071 3071 3072 3075 3078 3083 3088 3091 3095 3099 3102 3104 3106 3108 3109 3112 3114 3116 3118 3120 3123 3125 3127 3129 3131 3134 3134 3136 3136 3137 3139 3139 3138 3138 3137 3136 3136 3136 3136 3135 3135 3134 3134 3133
3068 3069 3070 3072 3076 3082 3086 3090 3092 3096 3099 3101 3104 3103 3105 3108 3109 3111 3113 3115 3118 3121 3123 3125 3127 3129 3130 3130 3131 3133 3134 3134 3134 3133 3133 3131 3131 3132 3132 3132 3132 3130 3129 3128
3069 3067 3069 3071 3075 3080 3085 3089 3092 3094 3098 3100 3101 3104 3099 3103 3104 3106 3107 3110 3113 3116 3118 3120 3122 3123 3123 3124 3127 3128 3128 3129 3129 3129 3128 3127 3128 3128 3127 3126 3125 3124 3123 3121
3067 3067 3069 3071 3075 3079 3082 3087 3090 3093 3096 3097 3098 3101 3096 3098 3100 3102 3103 3105 3108 3111 3113 3115 3116 3117 3118 3119 3121 3123 3124 3125 3125 3124 3124 3124 3123 3122 3121 3120 3119 3117 3115 3113
3066 3068 3069 3071 3074 3077 3081 3085 3090 3095 3096 3095 3093 3096 3093 3093 3094 3098 3099 3101 3104 3106 3109 3110 3112 3112 3113 3114 3117 3119 3120 3120 3120 3120 3119 3119 3118 3116 3115 3113 3111 3109 3107 3104
3069 3070 3070 3070 3073 3076 3080 3084 3086 3091 3094 3091 3091 3089 3087 3089 3092 3094 3096 3097 3100 3103 3105 3107 3108 3108 3109 3111 3113 3115 3116 3116 3116 3115 3114 3113 3111 3109 3108 3106 3104 3101 3098 3096
3072 3069 3069 3071 3073 3077 3079 3083 3088 3088 3088 3088 3086 3086 3086 3087 3088 3089 3091 3094 3097 3100 3102 3103 3104 3105 3106 3108 3110 3111 3112 3112 3111 3110 3108 3107 3105 3103 3101 3098 3096 3093 3090 3087
3074 3072 3072 3071 3074 3077 3079 3083 3087 3087 3089 3089 3085 3085 3084 3084 3085 3086 3088 3091 3094 3096 3098 3100 3101 3103 3104 3105 3106 3107 3108 3107 3106 3104 3102 3101 3099 3096 3094 3091 3088 3085 3082 3078
3078 3076 3076 3074 3076 3078 3080 3081 3084 3087 3090 3091 3088 3083 3082 3082 3083 3084 3086 3089 3091 3093 3095 3097 3099 3100 3101 3102 3103 3103 3103 3101 3100 3098 3096 3094 3091 3089 3086 3083 3080 3076 3071 3066
3079 3078 3075 3075 3078 3080 3081 3081 3081 3085 3088 3087 3085 3084 3082 3082 3082 3082 3084 3087 3089 3091 3093 3094 3095 3096 3097 3098 3099 3098 3097 3095 3093 3091 3088 3086 3084 3081 3078 3074 3069 3064 3059 3054
3080 3078 3077 3079 3080 3078 3079 3081 3081 3082 3083 3083 3084 3083 3082 3082 3082 3083 3083 3086 3087 3089 3091 3092 3093 3094 3094 3094 3094 3093 3091 3089 3087 3085 3082 3079 3076 3072 3068 3063 3059 3053 3049 3044
3080 3077 3077 3078 3078 3078 3077 3078 3078 3079 3080 3080 3080 3079 3080 3081 3082 3082 3083 3084 3086 3087 3088 3089 3090 3090 3090 3090 3089 3087 3086 3084 3081 3078 3074 3071 3067 3063 3058 3053 3048 3044 3039 3035
3080 3078 3076 3076 3076 3076 3076 3076 3076 3076 3077 3077 3077 3076 3078 3079 3079 3081 3082 3083 3084 3085 3086 3086 3086 3086 3085 3085 3083 3081 3078 3075 3072 3069 3066 3063 3058 3053 3048 3043 3039 3034 3029 3025
3079 3077 3076 3075 3074 3073 3072 3073 3073 3073 3073 3073 3073 3073 3075 3076 3077 3078 3079 3080 3081 3082 3082 3082 3081 3081 3080 3078 3075 3073 3070 3067 3065 3062 3058 3053 3048 3043 3038 3033 3029 3024 3020 3016
3078 3077 3075 3073 3071 3070 3070 3068 3068 3069 3069 3071 3071 3073 3073 3073 3074 3075 3076 3077 3078 3078 3078 3077 3076 3075 3072 3070 3068 3065 3063 3061 3058 3053 3048 3042 3038 3033 3028 3024 3020 3016 3011 3007
3077 3076 3075 3073 3071 3072 3069 3068 3067 3067 3067 3068 3069 3069 3070 3070 3070 3071 3073 3073 3074 3074 3073 3072 3070 3068 3066 3063 3061 3059 3057 3053 3048 3043 3038 3033 3029 3025 3021 3017 3013 3008 3003 2999
3076 3076 3075 3073 3072 3070 3067 3066 3067 3066 3067 3066 3066 3066 3067 3067 3068 3069 3069 3070 3070 3070 3068 3066 3064 3062 3060 3058 3056 3053 3049 3044 3039 3034 3030 3026 3022 3019 3014 3010 3005 3000 2996 2991
3075 3075 3076 3074 3074 3071 3067 3067 3066 3065 3065 3064 3063 3064 3065 3066 3066 3066 3067 3066 3065 3064 3062 3060 3058 3056 3054 3052 3049 3045 3040 3036 3032 3028 3024 3020 3016 3011 3007 3002 2997 2992 2987 2982
3074 3073 3072 3072 3073 3068 3067 3066 3065 3066 3070 3064 3063 3064 3064 3064 3065 3064 3062 3061 3060 3058 3056 3054 3052 3050 3048 3046 3041 3037 3033 3029 3025 3021 3017 3013 3009 3004 3000 2995 2990 2985 2980 2974
3074 3074 3071 3071 3070 3068 3067 3066 3067 3066 3064 3064 3063 3063 3062 3062 3061 3059 3057 3056 3054 3052 3050 3048 3047 3044 3041 3038 3034 3030 3027 3023 3019 3015 3012 3007 3003 2998 2993 2988 2983 2978 2972 2967
3072 3072 3072 3072 3069 3067 3066 3065 3064 3063 3062 3061 3061 3060 3059 3058 3057 3055 3053 3051 3049 3047 3045 3043 3041 3038 3035 3031 3028 3025 3022 3018 3014 3010 3006 3002 2997 2992 2987 2982 2977 2972 2966 2959
3068 3068 3068 3069 3068 3066 3064 3063 3061 3059 3059 3058 3057 3056 3055 3054 3053 3051 3049 3046 3044 3043 3040 3038 3036 3033 3029 3025 3023 3020 3016 3012 3008 3005 3000 2995 2990 2986 2980 2976 2970 2965 2958 2951
3064 3064 3064 3064 3065 3062 3061 3059 3058 3056 3055 3054 3053 3052 3051 3050 3048 3046 3044 3042 3040 3038 3036 3033 3030 3026 3024 3021 3017 3014 3010 3007 3003 2999 2994 2989 2984 2979 2975 2970 2965 2959 2952 2943
3058 3060 3061 3060 3061 3058 3057 3056 3054 3053 3051 3050 3049 3048 3047 3046 3044 3042 3040 3038 3036 3034 3031 3027 3024 3021 3018 3015 3011 3008 3005 3001 2998 2993 2988 2983 2978 2973 2969 2964 2960 2954 2947 2940